Weather History for Beaufort, NC

Change the Weather History Date:

Monday, September 1, 2014

  Actual Average Record
Temperature  
Mean Temperature 83 °F -  
Max Temperature 87 °F 86 °F 91 °F (1953)
Min Temperature 80 °F 69 °F 59 °F (1976)
Cooling Degree Days 18    
Growing Degree Days 33 (Base 50)    
Moisture  
Dew Point 76 °F    
Average Humidity 81    
Maximum Humidity 88    
Minimum Humidity 69    
Precipitation  
Precipitation 0.00 in - - ()
Sea Level Pressure  
Sea Level Pressure 30.10 in    
Wind  
Wind Speed 11 mph (SW)    
Max Wind Speed 15 mph    
Max Gust Speed -    
Visibility 10 miles    
Events      
Averages and records for this station are not official NWS values.
T = Trace of Precipitation, MM = Missing Value Source: NWS Daily Summary

Daily Weather History Graph

Daily Weather History Graph

Search for Another Location

Airport:

Trip Planner

Search our weather history database for the weather conditions in past years. The results will help you decide how hot, cold, wet, or windy it might be!

Date:

Astronomy

Sep. 01, 2014 Rise Set
Actual Time 6:39 AM EDT 7:33 PM EDT
Civil Twilight 6:13 AM EDT 7:58 PM EDT
Nautical Twilight 5:43 AM EDT 8:29 PM EDT
Astronomical Twilight 5:11 AM EDT 9:00 PM EDT
Moon 1:06 PM EDT 11:49 PM EDT
Length of Visible Light 13h 45m
Length of Day
12h 53m
Waxing Crescent, 42% of the Moon is Illuminated
Sep 1
Waxing Crescent
Sep 2
First Quarter
Sep 8
Full
Sep 15
Last Quarter
Sep 24
New

Hourly Weather History & Observations

Time (EDT) Temp. Heat Index Dew Point Humidity Pressure Visibility Wind Dir Wind Speed Gust Speed Precip Events Conditions
12:44 AM 82.0 °F 89.4 °F 75.9 °F 82% 30.12 in 10.0 mi SSW 11.5 mph - N/A   Mostly Cloudy
12:55 AM 82.4 °F 89.5 °F 75.2 °F 79% 30.12 in 10.0 mi SSW 9.2 mph - N/A   Scattered Clouds
1:58 AM 81.0 °F 87.9 °F 77.0 °F 88% 30.11 in 10.0 mi SSW 11.5 mph - N/A   Clear
2:58 AM 81.0 °F 87.3 °F 75.9 °F 85% 30.09 in 10.0 mi SSW 12.7 mph - N/A   Clear
3:58 AM 81.0 °F 87.9 °F 77.0 °F 88% 30.09 in 10.0 mi SSW 11.5 mph - N/A   Partly Cloudy
4:58 AM 81.0 °F 87.9 °F 77.0 °F 88% 30.10 in 10.0 mi SW 12.7 mph - N/A   Scattered Clouds
5:44 AM 81.0 °F 87.9 °F 77.0 °F 88% 30.10 in 10.0 mi SW 11.5 mph - N/A   Mostly Cloudy
5:58 AM 81.0 °F 87.9 °F 77.0 °F 88% 30.11 in 10.0 mi WSW 8.1 mph - N/A   Mostly Cloudy
6:08 AM 80.1 °F 85.4 °F 75.9 °F 87% 30.11 in 10.0 mi SW 10.4 mph - N/A   Scattered Clouds
7:58 AM 82.0 °F 90.2 °F 77.0 °F 85% 30.13 in 10.0 mi SW 11.5 mph - N/A   Clear
8:58 AM 84.0 °F 94.8 °F 78.1 °F 82% 30.13 in 10.0 mi WSW 10.4 mph - N/A   Partly Cloudy
10:07 AM 86.0 °F 96.9 °F 77.0 °F 74% 30.12 in 10.0 mi SW 10.4 mph - N/A   Mostly Cloudy
10:23 AM 84.9 °F 93.3 °F 75.0 °F 72% 30.12 in 10.0 mi WSW 8.1 mph - N/A   Scattered Clouds
10:58 AM 86.0 °F 96.0 °F 75.9 °F 72% 30.12 in 10.0 mi SW 9.2 mph - N/A   Clear
11:58 AM 86.0 °F 96.0 °F 75.9 °F 72% 30.11 in 10.0 mi SSW 11.5 mph - N/A   Clear
1:58 PM 86.0 °F 96.9 °F 77.0 °F 74% 30.09 in 10.0 mi SSW 12.7 mph - N/A   Clear
2:58 PM 84.9 °F 92.1 °F 73.9 °F 69% 30.08 in 10.0 mi South 12.7 mph - N/A   Clear
3:58 PM 86.0 °F 96.0 °F 75.9 °F 72% 30.06 in 10.0 mi SSW 15.0 mph - N/A   Clear
4:58 PM 84.9 °F 94.1 °F 75.9 °F 74% 30.06 in 10.0 mi SSW 11.5 mph - N/A   Clear
7:58 PM 82.0 °F 89.4 °F 75.9 °F 82% 30.07 in 10.0 mi SW 15.0 mph - N/A   Clear
8:58 PM 82.0 °F 89.4 °F 75.9 °F 82% 30.08 in 10.0 mi SSW 11.5 mph - N/A   Clear
9:58 PM 82.0 °F 90.2 °F 77.0 °F 85% 30.09 in 10.0 mi SW 11.5 mph - N/A   Clear
10:58 PM 82.0 °F 90.2 °F 77.0 °F 85% 30.09 in 10.0 mi SW 13.8 mph - N/A   Clear
11:58 PM 82.0 °F 90.2 °F 77.0 °F 85% 30.08 in 10.0 mi SW 11.5 mph - N/A   Clear